Powrót do katalogu

FENGYUN 1C DEB

AktywnySSO
NORAD 30701·DEBRIS·🇨🇳 China

Wystrzelony May 10, 1999 z Taiyuan Satellite Launch Center

Loading…

Następne Przeloty (najbliższe 24 godziny)

TLE

ŚwieżeSource: Space-Track

Epoka: Sep 14, 2026, 08:26 UTC

1 30701U 99025ARK 26257.35163404 -.00000030  00000-0  65045-5 0  9993
2 30701  98.6821 296.2847 0035300  38.1392  24.8005 14.13950760 10154

Śledź FENGYUN 1C DEB w czasie rzeczywistym z AllMySat

Download on the App Store